SDM1347 UWGG-UUWW

Flight info

Callsign SDM1347
Flight time 0h 39m
Altitude 36000
Route LARNO T291 URIDU L158 DIMGI DIMGI3A
Aircraft A319/M-SDE3FGHIRWY/LB1

Departure

Time 2026-05-06 16:14
Airport Nizhny Novgorod / Strigino International Airport (UWGG)

Arrival

Time 2026-05-06 16:53
Airport Vnukovo International Airport (UUWW)
Time Latitude Longitude Altitude Speed Heading
2026-05-06 16:14 56.27905 43.55548 20983 ft 318 kts 251°
2026-05-06 16:14 56.27079 43.51843 21686 ft 320 kts 251°
2026-05-06 16:14 56.26752 43.50377 21926 ft 321 kts 251°
2026-05-06 16:15 56.25902 43.46574 22562 ft 324 kts 251°
2026-05-06 16:15 56.25061 43.42810 23128 ft 328 kts 252°
2026-05-06 16:15 56.24198 43.38959 23677 ft 333 kts 251°
2026-05-06 16:15 56.23323 43.35062 24215 ft 337 kts 251°
2026-05-06 16:16 56.22417 43.31021 24776 ft 341 kts 251°
2026-05-06 16:16 56.21524 43.27046 25281 ft 346 kts 251°
2026-05-06 16:16 56.20595 43.22919 25781 ft 350 kts 250°
2026-05-06 16:16 56.19677 43.18851 26264 ft 354 kts 250°
2026-05-06 16:17 56.18731 43.14682 26760 ft 358 kts 250°
2026-05-06 16:17 56.17783 43.10511 27219 ft 362 kts 251°
2026-05-06 16:17 56.16807 43.06220 27631 ft 367 kts 250°
2026-05-06 16:17 56.15826 43.01914 28047 ft 371 kts 250°
2026-05-06 16:18 56.14852 42.97657 28457 ft 375 kts 251°
2026-05-06 16:18 56.13958 42.93754 28836 ft 377 kts 251°
2026-05-06 16:18 56.12881 42.89056 29285 ft 380 kts 250°
2026-05-06 16:18 56.11868 42.84652 29704 ft 383 kts 251°
2026-05-06 16:19 56.10832 42.80160 30095 ft 386 kts 251°
2026-05-06 16:19 56.09793 42.75666 30470 ft 389 kts 251°
2026-05-06 16:19 56.08735 42.71093 30850 ft 392 kts 251°
2026-05-06 16:19 56.07684 42.66544 31182 ft 395 kts 250°
2026-05-06 16:20 56.06623 42.61982 31525 ft 398 kts 250°
2026-05-06 16:20 56.05535 42.57310 31837 ft 401 kts 250°
2026-05-06 16:20 56.03365 42.48032 31912 ft 401 kts 250°
2026-05-06 16:21 56.01173 42.38701 31916 ft 403 kts 250°
2026-05-06 16:21 55.98964 42.29302 31881 ft 415 kts 249°
2026-05-06 16:22 55.96650 42.19501 31856 ft 427 kts 248°
2026-05-06 16:22 55.94291 42.09625 31872 ft 428 kts 248°
2026-05-06 16:23 55.91921 41.99750 31879 ft 427 kts 248°
2026-05-06 16:23 55.89624 41.89880 31884 ft 429 kts 251°
2026-05-06 16:24 55.87815 41.79624 31886 ft 429 kts 257°
2026-05-06 16:24 55.86659 41.69063 31895 ft 429 kts 263°
2026-05-06 16:25 55.86143 41.58391 31894 ft 429 kts 268°
2026-05-06 16:25 55.85825 41.47778 31894 ft 429 kts 268°
2026-05-06 16:26 55.85497 41.37145 31890 ft 430 kts 268°
2026-05-06 16:26 55.85160 41.26520 31894 ft 430 kts 267°
2026-05-06 16:27 55.84815 41.15927 31903 ft 431 kts 267°
2026-05-06 16:27 55.84460 41.05402 31894 ft 431 kts 267°
2026-05-06 16:28 55.84109 40.95219 31895 ft 431 kts 267°
2026-05-06 16:28 55.83708 40.84217 31894 ft 431 kts 266°
2026-05-06 16:29 55.83175 40.73528 31890 ft 431 kts 266°
2026-05-06 16:29 55.82623 40.62874 31885 ft 430 kts 266°
2026-05-06 16:30 55.82155 40.53909 31892 ft 431 kts 266°
2026-05-06 16:30 55.81496 40.41403 31895 ft 433 kts 266°
2026-05-06 16:31 55.80924 40.30706 31639 ft 427 kts 265°
2026-05-06 16:31 55.80635 40.25369 31378 ft 424 kts 265°
2026-05-06 16:31 55.80347 40.20085 31099 ft 424 kts 265°
2026-05-06 16:32 55.80057 40.14834 30810 ft 425 kts 265°
2026-05-06 16:32 55.79767 40.09593 30536 ft 425 kts 266°
2026-05-06 16:32 55.79475 40.04365 30259 ft 425 kts 266°
2026-05-06 16:32 55.79177 39.99045 29990 ft 426 kts 266°
2026-05-06 16:33 55.78881 39.93768 29721 ft 427 kts 266°
2026-05-06 16:33 55.78582 39.88532 29448 ft 427 kts 266°
2026-05-06 16:33 55.78280 39.83258 29173 ft 426 kts 266°
2026-05-06 16:34 55.77668 39.72677 28629 ft 428 kts 265°
2026-05-06 16:34 55.77353 39.67348 28167 ft 429 kts 265°
2026-05-06 16:34 55.77037 39.62008 27530 ft 429 kts 265°
2026-05-06 16:34 55.76721 39.56705 27058 ft 430 kts 265°
2026-05-06 16:35 55.76400 39.51377 26581 ft 431 kts 265°
2026-05-06 16:35 55.76081 39.46104 26054 ft 429 kts 265°
2026-05-06 16:35 55.75759 39.40833 25525 ft 425 kts 265°
2026-05-06 16:35 55.75437 39.35605 25008 ft 421 kts 265°
2026-05-06 16:36 55.75118 39.30444 24518 ft 416 kts 264°
2026-05-06 16:36 55.74807 39.25441 24016 ft 413 kts 264°
2026-05-06 16:36 55.74488 39.20333 23513 ft 409 kts 264°
2026-05-06 16:36 55.74174 39.15369 22998 ft 405 kts 264°
2026-05-06 16:37 55.73859 39.10412 22519 ft 400 kts 264°
2026-05-06 16:37 55.73546 39.05536 22032 ft 397 kts 264°
2026-05-06 16:37 55.73232 39.00681 21532 ft 393 kts 264°
2026-05-06 16:37 55.72924 38.95930 21018 ft 390 kts 264°
2026-05-06 16:38 55.72615 38.91192 20521 ft 386 kts 264°
2026-05-06 16:38 55.72306 38.86487 20070 ft 381 kts 264°
2026-05-06 16:38 55.71999 38.81828 19900 ft 374 kts 264°
2026-05-06 16:38 55.71698 38.77293 19894 ft 371 kts 264°
2026-05-06 16:39 55.71399 38.72818 19888 ft 358 kts 264°
2026-05-06 16:39 55.71112 38.68557 19882 ft 341 kts 264°
2026-05-06 16:39 55.70834 38.64449 19876 ft 324 kts 264°
2026-05-06 16:39 55.70572 38.60615 19877 ft 308 kts 264°
2026-05-06 16:40 55.70321 38.56930 19878 ft 293 kts 264°
2026-05-06 16:40 55.70081 38.53434 19875 ft 278 kts 264°
2026-05-06 16:40 55.69854 38.50149 19867 ft 263 kts 264°
2026-05-06 16:40 55.69637 38.47002 19882 ft 256 kts 264°
2026-05-06 16:41 55.69423 38.43900 19888 ft 255 kts 264°
2026-05-06 16:41 55.69203 38.40750 19865 ft 254 kts 264°
2026-05-06 16:41 55.68988 38.37666 19867 ft 254 kts 264°
2026-05-06 16:41 55.68771 38.34574 19858 ft 255 kts 263°
2026-05-06 16:42 55.68550 38.31428 19687 ft 256 kts 263°
2026-05-06 16:42 55.68330 38.28309 19478 ft 254 kts 263°
2026-05-06 16:42 55.68112 38.25219 19053 ft 258 kts 263°
2026-05-06 16:42 55.67884 38.21996 18140 ft 272 kts 263°
2026-05-06 16:43 55.67623 38.18648 17298 ft 281 kts 263°
2026-05-06 16:43 55.67343 38.15188 16491 ft 288 kts 263°
2026-05-06 16:43 55.67055 38.11661 15676 ft 289 kts 262°
2026-05-06 16:43 55.66770 38.08181 14893 ft 288 kts 263°
2026-05-06 16:44 55.66485 38.04707 14136 ft 285 kts 263°
2026-05-06 16:44 55.66201 38.01260 13412 ft 280 kts 263°
2026-05-06 16:44 55.66016 37.99017 12967 ft 277 kts 263°
2026-05-06 16:44 55.65665 37.94771 12114 ft 273 kts 263°
2026-05-06 16:45 55.65393 37.91463 11464 ft 273 kts 263°
2026-05-06 16:45 55.65107 37.88113 10817 ft 272 kts 260°
2026-05-06 16:45 55.64443 37.84998 10174 ft 275 kts 244°
2026-05-06 16:45 55.63490 37.82052 9555 ft 274 kts 243°
2026-05-06 16:46 55.62546 37.79207 9024 ft 269 kts 243°
2026-05-06 16:46 55.61617 37.76402 8469 ft 261 kts 243°
2026-05-06 16:46 55.60713 37.73669 7989 ft 251 kts 243°
2026-05-06 16:46 55.59843 37.71034 7517 ft 241 kts 243°
2026-05-06 16:47 55.59020 37.68535 7051 ft 234 kts 243°
2026-05-06 16:47 55.58210 37.66072 6594 ft 229 kts 243°
2026-05-06 16:47 55.57411 37.63646 6117 ft 229 kts 243°
2026-05-06 16:47 55.56599 37.61181 5627 ft 231 kts 243°
2026-05-06 16:48 55.55803 37.58723 5145 ft 232 kts 247°
2026-05-06 16:48 55.55512 37.56016 4658 ft 230 kts 282°
2026-05-06 16:48 55.56268 37.53605 4180 ft 230 kts 319°
2026-05-06 16:48 55.57553 37.51976 3769 ft 223 kts 325°
2026-05-06 16:49 55.58792 37.50395 3371 ft 216 kts 325°
2026-05-06 16:49 55.60117 37.49227 2975 ft 209 kts 341°
2026-05-06 16:49 55.61471 37.48435 2620 ft 202 kts 342°
2026-05-06 16:49 55.62762 37.47663 2337 ft 191 kts 341°
2026-05-06 16:50 55.63821 37.46569 2308 ft 168 kts 312°
2026-05-06 16:50 55.64155 37.44694 2229 ft 158 kts 266°
2026-05-06 16:50 55.63683 37.42975 2220 ft 157 kts 239°
2026-05-06 16:50 55.63014 37.41478 2151 ft 151 kts 239°
2026-05-06 16:51 55.62464 37.40037 1940 ft 138 kts 246°
2026-05-06 16:51 55.62012 37.38538 1774 ft 138 kts 251°
2026-05-06 16:51 55.61600 37.36998 1607 ft 136 kts 255°
2026-05-06 16:51 55.61243 37.35468 1434 ft 135 kts 255°
2026-05-06 16:52 55.60930 37.34074 1285 ft 136 kts 258°
2026-05-06 16:52 55.60566 37.32422 1105 ft 135 kts 253°
2026-05-06 16:52 55.60206 37.30888 925 ft 134 kts 255°
2026-05-06 16:52 55.59871 37.29362 763 ft 134 kts 255°
2026-05-06 16:53 55.59544 37.27888 691 ft 117 kts 252°
2026-05-06 16:53 55.59311 37.26815 690 ft 70 kts 247°
2026-05-06 16:53 55.59186 37.26271 690 ft 35 kts 249°
2026-05-06 16:53 55.59110 37.25925 690 ft 18 kts 250°
2026-05-06 16:54 55.59092 37.25795 690 ft 8 kts 293°
2026-05-06 16:54 55.59146 37.25795 690 ft 9 kts 25°
2026-05-06 16:54 55.59213 37.25851 690 ft 11 kts 23°
2026-05-06 16:54 55.59286 37.25912 690 ft 11 kts 26°
2026-05-06 16:55 55.59346 37.25988 690 ft 8 kts 54°
2026-05-06 16:55 55.59369 37.26069 690 ft 7 kts 66°
2026-05-06 16:55 55.59391 37.26164 690 ft 9 kts 68°
2026-05-06 16:55 55.59419 37.26286 690 ft 11 kts 69°
2026-05-06 16:56 55.59451 37.26434 690 ft 14 kts 68°
2026-05-06 16:56 55.59489 37.26595 690 ft 13 kts 68°
2026-05-06 16:56 55.59519 37.26723 690 ft 9 kts 66°
2026-05-06 16:56 55.59542 37.26805 690 ft 8 kts 59°
2026-05-06 16:57 55.59581 37.26899 690 ft 10 kts 48°
2026-05-06 16:57 55.59636 37.27002 690 ft 12 kts 46°
2026-05-06 16:57 55.59697 37.27113 690 ft 13 kts 46°
2026-05-06 16:57 55.59762 37.27233 690 ft 13 kts 45°
2026-05-06 16:58 55.59826 37.27349 690 ft 12 kts 46°
2026-05-06 16:58 55.59882 37.27455 690 ft 10 kts 46°
2026-05-06 16:58 55.59934 37.27558 690 ft 11 kts 52°
2026-05-06 16:58 55.59981 37.27676 690 ft 11 kts 48°
2026-05-06 16:59 55.60032 37.27752 690 ft 9 kts 35°
2026-05-06 16:59 55.60084 37.27832 690 ft 9 kts 46°
2026-05-06 16:59 55.60107 37.27938 690 ft 10 kts 107°
2026-05-06 16:59 55.60078 37.28061 690 ft 11 kts 105°
2026-05-06 17:00 55.60074 37.28154 690 ft 7 kts 86°
2026-05-06 17:00 55.60078 37.28252 690 ft 8 kts 85°
2026-05-06 17:00 55.60085 37.28368 690 ft 10 kts 78°
2026-05-06 17:00 55.60120 37.28481 690 ft 11 kts 48°
2026-05-06 17:01 55.60167 37.28567 690 ft 6 kts 45°
2026-05-06 17:01 55.60202 37.28626 690 ft 4 kts 39°
2026-05-06 17:01 55.60231 37.28650 690 ft 4 kts 14°
2026-05-06 17:01 55.60262 37.28659 690 ft 3 kts
2026-05-06 17:02 55.60289 37.28634 690 ft 5 kts 307°
2026-05-06 17:02 55.60300 37.28572 690 ft 4 kts 282°
2026-05-06 17:02 55.60303 37.28548 690 ft 1 kts 283°
2026-05-06 17:02 55.60308 37.28516 690 ft 3 kts 283°
2026-05-06 17:03 55.60311 37.28489 690 ft 1 kts 283°
2026-05-06 17:03 55.60312 37.28484 690 ft 0 kts 283°